Location: Claremont
(33.9858°S, 18.4575°E)
Time: 02:00:02
(UTC+00:00)

GPS 2-04 Rocket1 - Pass Details

Date: 03 March 2021
Orbit: 416 x 541 km, 35.6° (Epoch: 21 April)

Event Time Altitude Azimuth Distance (km) Brightness Sun altitude
Rises 19:04:36 0° 259° (W) 2,461 7.5 -21.6°
Reaches altitude 10° 19:06:48 10° 258° (WSW) 1,568 6.2 -22.1°
Enters shadow 19:09:48 60° 247° (WSW) 505 2.8 -22.6°
